Weather History for Cape Cod CGAS, MA

Change the Weather History Date:

Thursday, November 15, 2012

  Actual Average Record
Temperature  
Mean Temperature 44 °F -  
Max Temperature 48 °F 48 °F 68 °F (2008)
Min Temperature 41 °F 32 °F 23 °F (2014)
Degree Days  
Heating Degree Days 20    
Moisture  
Dew Point 35 °F    
Average Humidity 73    
Maximum Humidity 86    
Minimum Humidity 58    
Precipitation  
Precipitation 0.00 in - - ()
Sea Level Pressure  
Sea Level Pressure 30.34 in    
Wind  
Wind Speed 13 mph (NNE)    
Max Wind Speed 21 mph    
Max Gust Speed 26 mph    
Visibility 10 miles    
Events      
Averages and records for this station are not official NWS values.
T = Trace of Precipitation, MM = Missing Value Source: NWS Daily Summary

Daily Weather History Graph

Daily Weather History Graph

Search for Another Location

Airport:

Trip Planner

Search our weather history database for the weather conditions in past years. The results will help you decide how hot, cold, wet, or windy it might be!

Date:

Astronomy

Nov. 15, 2012 Rise Set
Actual Time 6:31 AM EST 4:21 PM EST
Civil Twilight 6:01 AM EST 4:51 PM EST
Nautical Twilight 5:28 AM EST 5:24 PM EST
Astronomical Twilight 4:55 AM EST 5:57 PM EST
Moon 8:25 AM EST (11/15) 6:08 PM EST (11/15)
Length of Visible Light 10h 49m
Length of Day
9h 49m
Waxing Crescent, 5% of the Moon is Illuminated
Nov 15
Waxing Crescent
Nov 20
First Quarter
Nov 28
Full
Dec 6
Last Quarter
Dec 13
New

Hourly Weather History & Observations

Time (EST) Temp. Windchill Dew Point Humidity Pressure Visibility Wind Dir Wind Speed Gust Speed Precip Events Conditions
12:15 AM 42.8 °F 35.4 °F 32.0 °F 66% 30.39 in 10.0 mi NE 15.0 mph 23.0 mph N/A   Overcast
12:35 AM 42.8 °F 35.1 °F 32.0 °F 66% 30.38 in 10.0 mi NNE 16.1 mph 24.2 mph N/A   Overcast
12:55 AM 42.8 °F 35.8 °F 32.0 °F 66% 30.38 in 10.0 mi NE 13.8 mph 24.2 mph N/A   Overcast
1:15 AM 42.8 °F 34.5 °F 32.0 °F 66% 30.38 in 10.0 mi NE 18.4 mph 26.5 mph N/A   Overcast
1:35 AM 42.8 °F 35.4 °F 32.0 °F 66% 30.39 in 10.0 mi NNE 15.0 mph 24.2 mph N/A   Overcast
1:55 AM 42.8 °F 35.8 °F 32.0 °F 66% 30.39 in 10.0 mi NE 13.8 mph 26.5 mph N/A   Overcast
2:15 AM 42.8 °F 34.8 °F 32.0 °F 66% 30.38 in 10.0 mi NNE 17.3 mph 26.5 mph N/A   Overcast
2:35 AM 42.8 °F 36.2 °F 32.0 °F 66% 30.38 in 10.0 mi NNE 12.7 mph 19.6 mph N/A   Overcast
2:55 AM 42.8 °F 35.4 °F 32.0 °F 66% 30.38 in 10.0 mi NNE 15.0 mph 20.7 mph N/A   Overcast
3:15 AM 42.8 °F 35.8 °F 32.0 °F 66% 30.36 in 10.0 mi NNE 13.8 mph 24.2 mph N/A   Overcast
3:35 AM 42.8 °F 37.5 °F 32.0 °F 66% 30.37 in 10.0 mi NE 9.2 mph 24.2 mph N/A   Overcast
3:55 AM 42.8 °F 35.1 °F 32.0 °F 66% 30.38 in 10.0 mi NE 16.1 mph 21.9 mph N/A   Overcast
4:15 AM 42.8 °F 36.6 °F 32.0 °F 66% 30.37 in 10.0 mi NNE 11.5 mph 21.9 mph N/A   Overcast
4:35 AM 42.8 °F 36.2 °F 33.8 °F 70% 30.37 in 10.0 mi NNE 12.7 mph 23.0 mph N/A   Overcast
4:55 AM 42.8 °F 36.2 °F 33.8 °F 70% 30.37 in 10.0 mi NE 12.7 mph 23.0 mph N/A   Overcast
5:15 AM 42.8 °F 36.6 °F 33.8 °F 70% 30.37 in 10.0 mi NNE 11.5 mph 16.1 mph N/A   Overcast
5:35 AM 42.8 °F 37.5 °F 33.8 °F 70% 30.38 in 10.0 mi NE 9.2 mph 18.4 mph N/A   Overcast
5:55 AM 42.8 °F 36.2 °F 35.6 °F 76% 30.37 in 10.0 mi NE 12.7 mph 19.6 mph N/A   Overcast
6:15 AM 42.8 °F 35.4 °F 33.8 °F 70% 30.37 in 10.0 mi NNE 15.0 mph 20.7 mph N/A   Overcast
6:35 AM 42.8 °F 36.2 °F 33.8 °F 70% 30.38 in 10.0 mi NNE 12.7 mph 23.0 mph N/A   Overcast
6:55 AM 42.8 °F 36.2 °F 33.8 °F 70% 30.38 in 10.0 mi NE 12.7 mph 20.7 mph N/A   Overcast
7:15 AM 42.8 °F 36.2 °F 33.8 °F 70% 30.38 in 10.0 mi NNE 12.7 mph 20.7 mph N/A   Overcast
7:35 AM 42.8 °F 35.8 °F 32.0 °F 66% 30.38 in 10.0 mi NNE 13.8 mph 21.9 mph N/A   Overcast
8:15 AM 42.8 °F 35.8 °F 33.8 °F 70% 30.39 in 10.0 mi NE 13.8 mph 20.7 mph N/A   Overcast
8:35 AM 42.8 °F 35.8 °F 33.8 °F 70% 30.38 in 10.0 mi NNE 13.8 mph 20.7 mph N/A   Overcast
8:55 AM 42.8 °F 37.0 °F 33.8 °F 70% 30.38 in 10.0 mi NNE 10.4 mph 19.6 mph N/A   Overcast
9:15 AM 42.8 °F 36.6 °F 35.6 °F 76% 30.39 in 10.0 mi NNE 11.5 mph 19.6 mph N/A   Overcast
9:35 AM 44.6 °F 38.4 °F 35.6 °F 71% 30.38 in 10.0 mi NE 12.7 mph 19.6 mph N/A   Unknown
9:55 AM 44.6 °F 38.4 °F 35.6 °F 71% 30.37 in 10.0 mi NNE 12.7 mph 20.7 mph N/A   Overcast
10:15 AM 44.6 °F 39.2 °F 35.6 °F 71% 30.36 in 10.0 mi NNE 10.4 mph 21.9 mph N/A   Overcast
10:35 AM 44.6 °F 38.1 °F 35.6 °F 71% 30.35 in 10.0 mi NE 13.8 mph 19.6 mph N/A   Overcast
10:55 AM 44.6 °F 38.4 °F 35.6 °F 71% 30.35 in 10.0 mi NE 12.7 mph 19.6 mph N/A   Overcast
11:15 AM 44.6 °F 38.4 °F 35.6 °F 71% 30.35 in 10.0 mi NE 12.7 mph 19.6 mph N/A   Overcast
11:35 AM 44.6 °F 38.8 °F 35.6 °F 71% 30.35 in 10.0 mi NE 11.5 mph 19.6 mph N/A   Overcast
11:55 AM 44.6 °F 38.8 °F 35.6 °F 71% 30.34 in 10.0 mi NNE 11.5 mph - N/A   Overcast
12:15 PM 44.6 °F 38.4 °F 35.6 °F 71% 30.33 in 10.0 mi NNE 12.7 mph 17.3 mph N/A   Overcast
12:35 PM 44.6 °F 37.8 °F 35.6 °F 71% 30.32 in 10.0 mi NNE 15.0 mph 21.9 mph N/A   Overcast
12:55 PM 44.6 °F 37.8 °F 35.6 °F 71% 30.32 in 10.0 mi NNE 15.0 mph 21.9 mph N/A   Overcast
1:15 PM 44.6 °F 38.1 °F 35.6 °F 71% 30.31 in 10.0 mi NNE 13.8 mph 17.3 mph N/A   Overcast
1:35 PM 44.6 °F 38.4 °F 35.6 °F 71% 30.31 in 10.0 mi NNE 12.7 mph 16.1 mph N/A   Overcast
1:55 PM 42.8 °F 37.0 °F 35.6 °F 76% 30.31 in 10.0 mi NNE 10.4 mph 18.4 mph N/A   Overcast
2:15 PM 42.8 °F 37.5 °F 35.6 °F 76% 30.30 in 10.0 mi NNE 9.2 mph 18.4 mph N/A   Overcast
2:35 PM 42.8 °F 37.0 °F 35.6 °F 76% 30.30 in 10.0 mi NE 10.4 mph 17.3 mph N/A   Overcast
2:55 PM 42.8 °F 37.5 °F 35.6 °F 76% 30.30 in 10.0 mi NNE 9.2 mph - N/A   Overcast
3:15 PM 42.8 °F 36.6 °F 35.6 °F 76% 30.31 in 10.0 mi North 11.5 mph - N/A   Overcast
3:35 PM 42.8 °F 37.5 °F 35.6 °F 76% 30.31 in 10.0 mi NNE 9.2 mph - N/A   Overcast
3:55 PM 42.8 °F 38.0 °F 35.6 °F 76% 30.32 in 10.0 mi North 8.1 mph 16.1 mph N/A   Unknown
4:15 PM 42.8 °F 37.5 °F 35.6 °F 76% 30.31 in 10.0 mi NNE 9.2 mph - N/A   Overcast
4:35 PM 42.8 °F 38.6 °F 35.6 °F 76% 30.31 in 10.0 mi NNE 6.9 mph - N/A   Overcast
4:55 PM 42.8 °F 37.5 °F 35.6 °F 76% 30.31 in 10.0 mi NNE 9.2 mph - N/A   Overcast
5:15 PM 42.8 °F 37.0 °F 35.6 °F 76% 30.31 in 10.0 mi North 10.4 mph - N/A   Overcast
5:35 PM 42.8 °F 38.0 °F 35.6 °F 76% 30.31 in 10.0 mi NNE 8.1 mph - N/A   Overcast
5:55 PM 42.8 °F 39.3 °F 35.6 °F 76% 30.31 in 10.0 mi North 5.8 mph - N/A   Overcast
6:15 PM 42.8 °F 40.1 °F 37.4 °F 81% 30.31 in 10.0 mi North 4.6 mph - N/A   Overcast
6:35 PM 42.8 °F 38.6 °F 35.6 °F 76% 30.31 in 10.0 mi NNE 6.9 mph - N/A   Overcast
6:55 PM 42.8 °F 38.6 °F 37.4 °F 81% 30.31 in 10.0 mi North 6.9 mph - N/A   Overcast
7:15 PM 42.8 °F 40.1 °F 37.4 °F 81% 30.30 in 10.0 mi NNE 4.6 mph - N/A   Overcast
7:35 PM 42.8 °F 38.0 °F 37.4 °F 81% 30.30 in 10.0 mi NNE 8.1 mph - N/A   Overcast
7:55 PM 44.6 °F 41.4 °F 37.4 °F 76% 30.30 in 10.0 mi NNE 5.8 mph - N/A   Overcast
8:15 PM 42.8 °F 38.6 °F 37.4 °F 81% 30.30 in 10.0 mi NNE 6.9 mph - N/A   Overcast
8:35 PM 42.8 °F 36.2 °F 37.4 °F 81% 30.29 in 10.0 mi North 12.7 mph - N/A   Overcast
8:55 PM 42.8 °F 37.0 °F 35.6 °F 76% 30.29 in 10.0 mi North 10.4 mph - N/A   Overcast
9:15 PM 42.8 °F 37.5 °F 35.6 °F 76% 30.30 in 10.0 mi North 9.2 mph - N/A   Overcast
9:35 PM 42.8 °F 37.0 °F 35.6 °F 76% 30.29 in 10.0 mi North 10.4 mph - N/A   Overcast
9:55 PM 42.8 °F 37.5 °F 35.6 °F 76% 30.29 in 10.0 mi North 9.2 mph - N/A   Overcast
10:15 PM 42.8 °F 38.0 °F 35.6 °F 76% 30.29 in 10.0 mi NNE 8.1 mph - N/A   Overcast
10:35 PM 42.8 °F 39.3 °F 35.6 °F 76% 30.29 in 10.0 mi NNE 5.8 mph - N/A   Overcast
10:55 PM 41.0 °F 36.4 °F 35.6 °F 81% 30.29 in 10.0 mi NNE 6.9 mph - N/A   Overcast
11:15 PM 41.0 °F 37.1 °F 33.8 °F 76% 30.28 in 10.0 mi NNE 5.8 mph - N/A   Overcast
11:35 PM 41.0 °F 35.8 °F 33.8 °F 76% 30.29 in 10.0 mi NE 8.1 mph - N/A   Overcast
11:55 PM 41.0 °F 37.1 °F 33.8 °F 76% 30.28 in 10.0 mi NNE 5.8 mph - N/A   Overcast